COSMOS 2251 DEB, 34065

Orbit data source: Space-Track

COSMOS 2251 DEB, 34065 is space debris in LEO originally from a launch on Wed, 16 Jun 1993 UTC launched from the Plesetsk Missile And Space Complex (PKMTR). The debris from Iridium 33, an American commercial communications satellite, has been tracked extensively since its accidental collision with the defunct Russian satellite Cosmos 2251 in 2009. This event, occurring at high speed in low Earth orbit (LEO), generated thousands of pieces of space debris, significantly increasing the risk of further collisions. The Iridium 33 debris cloud has impacted space traffic management and orbital debris mitigation strategies, making it a subject of ongoing study in space situational awareness.

Loading next visibility...
Identifier
34065, 1993-036KC
Orbit
LEO
Country
Flag of CISCIS
Related business
Manufacturer
Unknown
Mission
Spacecraft
Bus & Motor
Unknown
Mass
Unknown
Launch date (UTC)
1993-06-16 (33 years ago)
Launch vehicle
Unknown
Launch site
Plesetsk Missile And Space Complex (PKMTR)
Object type
Payload
Rocket body
Debris
Shape & HBR
Unknown shape, 0.1 m
Radar Cross Section
Small (<0.1 m²)

Expand to show TLE details & history
Last TLE update: 18 hours ago

TLE from 18 hours ago
0 COSMOS 2251 DEB
1 34065U 93036KC  26033.42702066  .00000542  00000-0  18724-3 0  9996
2 34065  74.0360 162.9120 0017498 253.9850 163.9860 14.38128082889489
Epoch: 2026-02-02T10:14Z
TLE epoch observation values (Epoch: 2026-02-02T10:14:54.585Z)
Latitude
54.75275°
Longitude
-99.69321°
Altitude
785.405 km
Speed
7.46 km/s
True Right ascension
12h 26m 37s
True Declination
54° 35' 28"
Sunlit
Object was in full shadow at epoch
Visualization orbit readout
Latitude
Unknown
Longitude
Unknown
Altitude
Unknown
Speed
Unknown
Apparent Right ascension
Unknown
Apparent Declination
Unknown
Sunlit
N/A
Visualization observer readout
Local Sidereal Time
05:52:47
Azimuth
Unknown
Elevation
Unknown
Doppler factor
Unknown
Orbital elements
Apogee altitude
774.806 km
Perigee altitude
749.817 km
Semi-major axis
7,140.449 km
Eccentricity
0.00175
Inclination
74.036°
RAAN
162.912°
Arg. of periapsis
253.985°
True anomaly
164.0412°
Mean anomaly
163.986°
Eccentric anomaly
164.01361°
Mean motion
3.59712 °/min
Orbital period
100.08 mins
BSTAR
0.00018724
Loading maneuver chart data...
Computing Atmospheric mass density...

Documentation

Showing up to 5 results
|